STARLINK-33846, 63780

Orbit data source: Space-Track

STARLINK-33846, 63780 is a payload satellite owned by SpaceX/Seattle (US) in LEO that was launched on Fri, 02 May 2025 UTC via an FALCON 9 launch vehicle from the Air Force Eastern Test Range (AFETR). Payload-class satellites include a variety of spacecraft equipped with specific instruments for various scientific and technological missions. These include communications satellites like Starlink; space stations such as the ISS; scientific satellites like the Hubble; Earth observation satellites from companies like Planet Labs, Umbra, and HawkEye 360; GPS; miniature CubeSats for education and research; and military/defense satellites.

Loading next visibility...
Identifier
63780, 2025-091F
Orbit
LEO
Country
Flag of USUS
Related business
Manufacturer
SpaceX/Seattle
Mission
Operational Commercial Communications
Bus & Motor
STARLINK V2MO, Unknown motor
Mass
575 kg wet, ~530 kg dry
Launch date (UTC)
2025-05-02 (1 year ago)
Launch vehicle
FALCON 9
Launch site
Air Force Eastern Test Range (AFETR)
Object type
Payload
Rocket body
Debris
Shape & HBR
Box + 2 Pan, 17.7 m
Radar Cross Section
36.964 m², Large (>1 m²)

Expand to show TLE details & history
Last TLE update: 1 day ago

TLE from 1 day ago
0 STARLINK-33846
1 63780U 25091F   26170.45977631  .00006344  00000-0  23982-3 0  9993
2 63780  43.0022 198.0418 0001728 273.6794  86.3861 15.27586160 64513
Epoch: 2026-06-19T11:02Z
TLE epoch observation values (Epoch: 2026-06-19T11:02:04.673Z)
Latitude
0.00006°
Longitude
124.83395°
Altitude
482.732 km
Speed
7.626 km/s
True Right ascension
13h 12m 10s
True Declination
0° 00' 00"
Sunlit
Object was in daylight at epoch
Visualization orbit readout
Latitude
Unknown
Longitude
Unknown
Altitude
Unknown
Speed
Unknown
Apparent Right ascension
Unknown
Apparent Declination
Unknown
Sunlit
N/A
Visualization observer readout
Local Sidereal Time
08:33:25
Azimuth
Unknown
Elevation
Unknown
Doppler factor
Unknown
Orbital elements
Apogee altitude
486.161 km
Perigee altitude
483.79 km
Semi-major axis
6,863.112 km
Eccentricity
0.00017
Inclination
43.0022°
RAAN
198.0418°
Arg. of periapsis
273.6794°
True anomaly
86.40586°
Mean anomaly
86.3861°
Eccentric anomaly
86.39598°
Mean motion
3.81735 °/min
Orbital period
94.31 mins
BSTAR
0.00023982
Loading maneuver chart data...
Computing Atmospheric mass density...
Loading historical data...
Loading historical data...
Loading historical data...
Loading historical data...
Loading historical data...
Loading historical data...
Loading historical data...

Documentation

Showing up to 5 results
|